| time (UTC) | temp C | wind direction | speed KPH | gust KPH | rain 1hr cm | rain 24hr cm | rain mn cm | humidity % | barometer mb |
| 20260502162048 | 20 | 13 | 8.0 | 12.9 | 0.00 | 0.00 | 0.00 | 71 | 1025.0 |
| 20260502161544 | 20 | 68 | 6.4 | 9.7 | 0.00 | 0.00 | 0.00 | 72 | 1025.1 |
| 20260502161042 | 20 | 340 | 4.8 | 4.8 | 0.00 | 0.00 | 0.00 | 73 | 1025.2 |
| 20260502160540 | 20 | 166 | 4.8 | 4.8 | 0.00 | 0.00 | 0.00 | 71 | 1025.3 |
| 20260502151953 | 18 | 19 | 8.0 | 11.3 | 0.00 | 0.00 | 0.00 | 78 | 1025.3 |
| 20260502151449 | 18 | 90 | 3.2 | 3.2 | 0.00 | 0.00 | 0.00 | 79 | 1025.1 |
| 20260502150947 | 18 | 38 | 6.4 | 9.7 | 0.00 | 0.00 | 0.00 | 81 | 1025.3 |
| 20260502150444 | 17 | 118 | 1.6 | 3.2 | 0.00 | 0.00 | 0.00 | 81 | 1025.0 |
| 20260502130329 | 15 | 11 | 4.8 | 8.0 | 0.00 | 0.00 | 0.00 | 89 | 1023.3 |
| 20260502123815 | 14 | 150 | 1.6 | 1.6 | 0.00 | 0.00 | 0.00 | 92 | 1023.0 |
| 20260502123312 | 14 | 216 | 1.6 | 1.6 | 0.00 | 0.00 | 0.00 | 93 | 1023.2 |
| 20260502122809 | 13 | 347 | 4.8 | 4.8 | 0.00 | 0.00 | 0.00 | 94 | 1023.2 |
| 20260502122306 | 13 | 98 | 3.2 | 4.8 | 0.00 | 0.00 | 0.00 | 95 | 1023.0 |
| 20260502121803 | 13 | 274 | 3.2 | 4.8 | 0.00 | 0.00 | 0.00 | 96 | 1023.2 |
| 20260502121300 | 13 | 290 | 3.2 | 3.2 | 0.00 | 0.00 | 0.00 | 97 | 1023.0 |
| 20260502120757 | 13 | 228 | 4.8 | 4.8 | 0.00 | 0.00 | 0.00 | 97 | 1023.0 |
| 20260502120254 | 12 | 113 | 3.2 | 3.2 | 0.00 | 0.00 | 0.00 | 98 | 1022.9 |
| 20260502115752 | 12 | 110 | 4.8 | 4.8 | 0.00 | 0.00 | 0.00 | 98 | 1022.9 |
| 20260502115248 | 12 | 3 | 4.8 | 4.8 | 0.00 | 0.00 | 0.00 | 98 | 1022.6 |
| 20260502114744 | 12 | 76 | 4.8 | 4.8 | 0.00 | 0.00 | 0.00 | 98 | 1022.6 |
| 20260502114241 | 12 | 226 | 3.2 | 3.2 | 0.00 | 0.00 | 0.00 | 98 | 1022.5 |
| 20260502113738 | 12 | 129 | 3.2 | 8.0 | 0.00 | 0.00 | 0.00 | 98 | 1022.5 |
| 20260502113236 | 12 | 99 | 1.6 | 3.2 | 0.00 | 0.00 | 0.00 | 98 | 1022.2 |
| 20260502112734 | 12 | 147 | 1.6 | 1.6 | 0.00 | 0.00 | 0.00 | 98 | 1022.2 |
| 20260502112231 | 12 | 45 | 4.8 | 4.8 | 0.00 | 0.00 | 0.00 | 98 | 1022.1 |
| 20260502111728 | 12 | 315 | 3.2 | 3.2 | 0.00 | 0.00 | 0.00 | 98 | 1022.2 |
| 20260502111226 | 12 | 79 | 1.6 | 3.2 | 0.00 | 0.00 | 0.00 | 98 | 1022.0 |
| 20260502110723 | 12 | 129 | 1.6 | 1.6 | 0.00 | 0.00 | 0.00 | 98 | 1022.1 |
| 20260502110221 | 12 | 68 | 3.2 | 3.2 | 0.00 | 0.00 | 0.00 | 98 | 1021.9 |
| 20260502105719 | 12 | 106 | 3.2 | 3.2 | 0.00 | 0.00 | 0.00 | 98 | 1022.0 |
| 20260502105215 | 12 | 162 | 1.6 | 1.6 | 0.00 | 0.00 | 0.00 | 98 | 1022.1 |
| 20260502104713 | 12 | 147 | 1.6 | 1.6 | 0.00 | 0.00 | 0.00 | 98 | 1022.0 |
| 20260502104210 | 12 | 200 | 0.0 | 1.6 | 0.00 | 0.00 | 0.00 | 98 | 1022.0 |
| 20260502103707 | 12 | 69 | 3.2 | 3.2 | 0.00 | 0.00 | 0.00 | 98 | 1022.1 |
| 20260502103205 | 12 | 113 | 1.6 | 1.6 | 0.00 | 0.00 | 0.00 | 98 | 1021.9 |
| 20260502102701 | 12 | 32 | 4.8 | 8.0 | 0.00 | 0.00 | 0.00 | 98 | 1022.1 |
| 20260502102158 | 12 | 81 | 1.6 | 1.6 | 0.00 | 0.00 | 0.00 | 98 | 1022.0 |
| 20260502101656 | 12 | 98 | 4.8 | 8.0 | 0.00 | 0.00 | 0.00 | 98 | 1021.9 |
| 20260502101154 | 12 | 23 | 4.8 | 4.8 | 0.00 | 0.00 | 0.00 | 98 | 1021.7 |
| 20260502100652 | 12 | 60 | 1.6 | 1.6 | 0.00 | 0.00 | 0.00 | 98 | 1021.8 |
| 20260502100150 | 12 | 138 | 1.6 | 1.6 | 0.00 | 0.00 | 0.00 | 98 | 1021.9 |
| 20260502091124 | 12 | 44 | 6.4 | 9.7 | 0.00 | 0.00 | 0.00 | 98 | 1021.1 |
| 20260502090621 | 12 | 21 | 3.2 | 4.8 | 0.00 | 0.00 | 0.00 | 97 | 1021.1 |
| 20260502090119 | 12 | 35 | 4.8 | 4.8 | 0.00 | 0.00 | 0.00 | 97 | 1020.9 |
| 20260502071516 | 11 | 84 | 1.6 | 1.6 | 0.00 | 0.00 | 0.00 | 99 | 1020.3 |
| 20260502071014 | 11 | 157 | 1.6 | 1.6 | 0.00 | 0.00 | 0.00 | 99 | 1020.4 |
| 20260502070512 | 11 | 141 | 1.6 | 1.6 | 0.00 | 0.00 | 0.00 | 99 | 1020.6 |
| 20260502070010 | 11 | 148 | 1.6 | 1.6 | 0.00 | 0.00 | 0.00 | 99 | 1020.5 |
| 20260502065508 | 11 | 141 | 1.6 | 1.6 | 0.00 | 0.00 | 0.00 | 99 | 1020.6 |
| 20260502065006 | 11 | 159 | 0.0 | 1.6 | 0.00 | 0.00 | 0.00 | 99 | 1020.5 |
| 20260502064504 | 11 | 127 | 1.6 | 1.6 | 0.00 | 0.00 | 0.00 | 99 | 1020.5 |
| 20260502064000 | 11 | 138 | 1.6 | 1.6 | 0.00 | 0.00 | 0.00 | 99 | 1020.5 |
| 20260502063459 | 11 | 111 | 1.6 | 3.2 | 0.00 | 0.00 | 0.00 | 99 | 1020.6 |
| 20260502062955 | 11 | 73 | 3.2 | 3.2 | 0.00 | 0.00 | 0.00 | 99 | 1020.6 |
| 20260502062452 | 11 | 99 | 1.6 | 1.6 | 0.00 | 0.00 | 0.00 | 99 | 1020.4 |
| 20260502061951 | 11 | 339 | 4.8 | 4.8 | 0.00 | 0.00 | 0.00 | 99 | 1020.6 |
| 20260502061449 | 11 | 1 | 4.8 | 4.8 | 0.00 | 0.00 | 0.00 | 99 | 1020.7 |
| 20260502060944 | 11 | 152 | 0.0 | 1.6 | 0.00 | 0.00 | 0.00 | 99 | 1020.6 |
| 20260502060440 | 11 | 105 | 1.6 | 1.6 | 0.00 | 0.00 | 0.00 | 99 | 1020.8 |
| 20260502055937 | 11 | 31 | 3.2 | 8.0 | 0.00 | 6.53 | 6.53 | 99 | 1020.7 |
| 20260502055435 | 11 | 61 | 3.2 | 4.8 | 0.00 | 6.53 | 6.53 | 99 | 1020.8 |
| 20260502054929 | 11 | 69 | 3.2 | 3.2 | 0.00 | 6.53 | 6.53 | 99 | 1020.9 |
| 20260502054427 | 11 | 165 | 1.6 | 3.2 | 0.00 | 6.53 | 6.53 | 99 | 1020.9 |
| 20260502053924 | 11 | 133 | 0.0 | 1.6 | 0.00 | 6.53 | 6.53 | 99 | 1020.7 |
| 20260502053421 | 12 | 150 | 3.2 | 3.2 | 0.00 | 6.53 | 6.53 | 99 | 1020.9 |
| 20260502052918 | 11 | 50 | 4.8 | 4.8 | 0.00 | 6.53 | 6.53 | 99 | 1020.9 |
| 20260502052416 | 11 | 109 | 1.6 | 3.2 | 0.00 | 6.53 | 6.53 | 99 | 1020.9 |
| 20260502051914 | 11 | 148 | 3.2 | 3.2 | 0.00 | 6.53 | 6.53 | 99 | 1021.0 |
| 20260502051412 | 11 | 75 | 11.3 | 12.9 | 0.00 | 6.53 | 6.53 | 99 | 1020.8 |
| 20260502050909 | 11 | 42 | 3.2 | 3.2 | 0.00 | 6.53 | 6.53 | 99 | 1020.7 |
| 20260502050405 | 11 | 58 | 6.4 | 8.0 | 0.00 | 6.53 | 6.53 | 99 | 1020.5 |
| 20260502045903 | 11 | 64 | 4.8 | 4.8 | 0.00 | 6.53 | 6.53 | 99 | 1020.9 |
| 20260502045359 | 11 | 119 | 1.6 | 1.6 | 0.00 | 6.53 | 6.53 | 99 | 1020.9 |
| 20260502044856 | 11 | 135 | 3.2 | 3.2 | 0.00 | 6.53 | 6.53 | 99 | 1021.2 |
| 20260502044352 | 11 | 129 | 1.6 | 3.2 | 0.00 | 6.53 | 6.53 | 99 | 1021.0 |
| 20260502043849 | 11 | 39 | 4.8 | 4.8 | 0.00 | 6.53 | 6.53 | 99 | 1021.0 |
| 20260502043347 | 11 | 44 | 4.8 | 4.8 | 0.00 | 6.53 | 6.53 | 99 | 1021.0 |
| 20260502042846 | 11 | 71 | 8.0 | 11.3 | 0.00 | 6.53 | 6.53 | 99 | 1021.1 |
| 20260502042344 | 11 | 283 | 3.2 | 3.2 | 0.00 | 6.53 | 6.53 | 99 | 1021.0 |
| 20260502041841 | 11 | 25 | 4.8 | 8.0 | 0.00 | 6.53 | 6.53 | 99 | 1021.2 |
| 20260502041338 | 11 | 67 | 3.2 | 3.2 | 0.00 | 6.53 | 6.53 | 99 | 1021.0 |
| 20260502040835 | 11 | 119 | 1.6 | 1.6 | 0.00 | 6.53 | 6.53 | 99 | 1021.2 |
| 20260502040332 | 11 | 188 | 3.2 | 4.8 | 0.00 | 6.53 | 6.53 | 99 | 1021.1 |
| 20260502035828 | 11 | 23 | 4.8 | 9.7 | 0.00 | 6.53 | 6.53 | 99 | 1021.2 |
| 20260502035325 | 11 | 312 | 8.0 | 9.7 | 0.00 | 6.53 | 6.53 | 99 | 1021.0 |
| 20260502034822 | 11 | 92 | 3.2 | 4.8 | 0.00 | 6.53 | 6.53 | 99 | 1021.0 |
| 20260502034321 | 11 | 58 | 4.8 | 4.8 | 0.00 | 6.53 | 6.53 | 99 | 1020.7 |
| 20260502033819 | 11 | 77 | 4.8 | 4.8 | 0.00 | 6.53 | 6.53 | 99 | 1020.9 |
| 20260502033316 | 11 | 105 | 1.6 | 1.6 | 0.00 | 6.53 | 6.53 | 99 | 1020.8 |
| 20260502032813 | 11 | 333 | 9.7 | 11.3 | 0.00 | 6.53 | 6.53 | 99 | 1020.7 |
| 20260502032309 | 11 | 25 | 9.7 | 17.7 | 0.00 | 6.53 | 6.53 | 99 | 1020.7 |
| 20260502031807 | 11 | 64 | 4.8 | 4.8 | 0.00 | 6.53 | 6.53 | 99 | 1020.4 |
| 20260502031304 | 12 | 106 | 3.2 | 3.2 | 0.00 | 6.53 | 6.53 | 99 | 1020.3 |
| 20260502030803 | 12 | 45 | 3.2 | 4.8 | 0.00 | 6.53 | 6.53 | 99 | 1020.0 |
| 20260502030300 | 12 | 352 | 3.2 | 4.8 | 0.00 | 6.53 | 6.53 | 99 | 1019.8 |
| 20260502025757 | 12 | 149 | 3.2 | 4.8 | 0.00 | 6.53 | 6.53 | 99 | 1019.5 |
| 20260502025255 | 12 | 3 | 11.3 | 14.5 | 0.00 | 6.53 | 6.53 | 99 | 1019.4 |
| 20260502024753 | 12 | 141 | 1.6 | 3.2 | 0.00 | 6.53 | 6.53 | 99 | 1019.7 |
| 20260502024250 | 12 | 32 | 8.0 | 9.7 | 0.00 | 6.53 | 6.53 | 99 | 1019.6 |
| 20260502023748 | 12 | 81 | 3.2 | 3.2 | 0.00 | 6.53 | 6.53 | 99 | 1019.8 |
| 20260502023246 | 12 | 32 | 4.8 | 8.0 | 0.00 | 6.53 | 6.53 | 99 | 1019.8 |
| 20260502022743 | 12 | 33 | 8.0 | 9.7 | 0.00 | 6.53 | 6.53 | 99 | 1019.6 |
| 20260502022239 | 12 | 284 | 4.8 | 4.8 | 0.00 | 6.53 | 6.53 | 99 | 1019.6 |
| 20260502021737 | 12 | 19 | 4.8 | 8.0 | 0.00 | 6.53 | 6.53 | 99 | 1019.4 |
| 20260502021234 | 12 | 28 | 4.8 | 4.8 | 0.00 | 6.53 | 6.53 | 99 | 1019.4 |
| 20260502020731 | 12 | 346 | 8.0 | 12.9 | 0.00 | 6.53 | 6.53 | 99 | 1019.4 |
| 20260502020228 | 12 | 38 | 4.8 | 8.0 | 0.00 | 6.53 | 6.53 | 99 | 1019.2 |
| 20260502015726 | 12 | 320 | 4.8 | 4.8 | 0.00 | 6.53 | 6.53 | 99 | 1019.4 |
| 20260502015222 | 12 | 50 | 3.2 | 3.2 | 0.00 | 6.53 | 6.53 | 99 | 1018.8 |
| 20260502014720 | 12 | 6 | 8.0 | 9.7 | 0.00 | 6.53 | 6.53 | 99 | 1018.8 |
| 20260502014216 | 12 | 354 | 6.4 | 11.3 | 0.18 | 6.53 | 6.53 | 99 | 1018.5 |
| 20260502013713 | 12 | 50 | 4.8 | 4.8 | 0.18 | 6.53 | 6.53 | 99 | 1018.3 |
| 20260502013208 | 12 | 57 | 3.2 | 4.8 | 0.13 | 6.50 | 6.50 | 99 | 1018.2 |
| 20260502012705 | 12 | 22 | 3.2 | 8.0 | 0.13 | 6.50 | 6.50 | 99 | 1018.1 |
| 20260502012203 | 12 | 44 | 8.0 | 11.3 | 0.00 | 6.48 | 6.48 | 99 | 1018.3 |
| 20260502011700 | 12 | 9 | 4.8 | 9.7 | 0.00 | 6.48 | 6.48 | 99 | 1018.3 |
| 20260502011155 | 12 | 28 | 6.4 | 9.7 | 0.00 | 6.48 | 6.48 | 99 | 1018.5 |
| 20260502010654 | 12 | 261 | 3.2 | 4.8 | 0.00 | 6.48 | 6.48 | 99 | 1018.5 |
| 20260502010149 | 12 | 70 | 4.8 | 8.0 | 0.18 | 6.48 | 6.48 | 99 | 1018.4 |
| 20260502005647 | 12 | 7 | 6.4 | 9.7 | 0.18 | 6.48 | 6.48 | 99 | 1018.5 |
| 20260502005144 | 12 | 320 | 4.8 | 4.8 | 0.00 | 6.45 | 6.45 | 99 | 1018.2 |
| 20260502004640 | 12 | 3 | 8.0 | 11.3 | 0.00 | 6.45 | 6.45 | 99 | 1018.2 |
| 20260502004137 | 12 | 97 | 1.6 | 3.2 | 0.13 | 6.45 | 6.45 | 99 | 1018.0 |
| 20260502003635 | 12 | 27 | 4.8 | 8.0 | 0.13 | 6.45 | 6.45 | 99 | 1018.2 |
| 20260502003132 | 12 | 60 | 4.8 | 8.0 | 0.00 | 6.43 | 6.43 | 99 | 1017.9 |
| 20260502002628 | 12 | 84 | 3.2 | 3.2 | 0.18 | 6.43 | 6.43 | 99 | 1017.9 |
| 20260502002126 | 12 | 78 | 3.2 | 3.2 | 0.30 | 6.43 | 6.43 | 99 | 1017.8 |
| 20260502001623 | 12 | 110 | 1.6 | 3.2 | 0.30 | 6.40 | 6.40 | 99 | 1017.9 |
| 20260502001120 | 12 | 156 | 1.6 | 1.6 | 0.30 | 6.38 | 6.38 | 99 | 1018.0 |
| 20260502000619 | 12 | 309 | 3.2 | 4.8 | 0.43 | 6.35 | 6.35 | 99 | 1017.8 |
| 20260502000116 | 12 | 49 | 4.8 | 4.8 | 0.30 | 6.32 | 6.32 | 99 | 1017.8 |
| 20260501235611 | 12 | 100 | 1.6 | 3.2 | 0.18 | 6.27 | 6.27 | 99 | 1017.2 |
| 20260501235108 | 12 | 76 | 4.8 | 4.8 | 0.36 | 6.27 | 6.27 | 99 | 1016.7 |
| 20260501234603 | 12 | 81 | 1.6 | 1.6 | 0.18 | 6.25 | 6.25 | 99 | 1016.7 |
| 20260501234101 | 12 | 77 | 4.8 | 4.8 | 0.00 | 6.22 | 6.22 | 99 | 1017.0 |
| 20260501233559 | 12 | 9 | 4.8 | 8.0 | 0.00 | 6.22 | 6.22 | 99 | 1017.1 |
| 20260501233056 | 12 | 121 | 1.6 | 1.6 | 0.00 | 6.22 | 6.22 | 99 | 1016.8 |
| 20260501232552 | 12 | 41 | 4.8 | 4.8 | 0.00 | 6.22 | 6.22 | 99 | 1016.4 |
| 20260501232049 | 12 | 60 | 1.6 | 3.2 | 0.00 | 6.22 | 6.22 | 99 | 1016.0 |
| 20260501231547 | 12 | 73 | 6.4 | 11.3 | 0.13 | 6.22 | 6.22 | 99 | 1015.9 |
| 20260501231045 | 12 | 89 | 4.8 | 8.0 | 0.13 | 6.22 | 6.22 | 99 | 1015.9 |
| 20260501230543 | 12 | 86 | 4.8 | 8.0 | 0.00 | 6.20 | 6.20 | 99 | 1015.9 |
| 20260501230041 | 12 | 318 | 6.4 | 9.7 | 0.18 | 6.20 | 6.20 | 99 | 1015.9 |
| 20260501225538 | 12 | 76 | 6.4 | 11.3 | 0.30 | 6.20 | 6.20 | 99 | 1015.7 |
| 20260501225034 | 12 | 73 | 8.0 | 11.3 | 0.13 | 6.17 | 6.17 | 99 | 1015.8 |
| 20260501224532 | 12 | 140 | 8.0 | 12.9 | 0.30 | 6.15 | 6.15 | 99 | 1015.4 |
| 20260501224029 | 13 | 62 | 14.5 | 17.7 | 0.48 | 6.15 | 6.15 | 99 | 1015.2 |
| 20260501223525 | 13 | 113 | 3.2 | 4.8 | 0.61 | 6.10 | 6.10 | 99 | 1015.6 |
| 20260501223021 | 13 | 69 | 4.8 | 4.8 | 0.61 | 6.07 | 6.07 | 99 | 1016.1 |
| 20260501222518 | 13 | 104 | 4.8 | 8.0 | 0.30 | 5.99 | 5.99 | 99 | 1017.3 |
| 20260501222015 | 13 | 44 | 4.8 | 4.8 | 0.13 | 5.97 | 5.97 | 99 | 1017.5 |
| 20260501221511 | 13 | 45 | 3.2 | 3.2 | 0.18 | 5.94 | 5.94 | 99 | 1017.1 |
| 20260501221009 | 13 | 20 | 8.0 | 9.7 | 0.36 | 5.94 | 5.94 | 99 | 1016.6 |
| 20260501220507 | 13 | 31 | 4.8 | 4.8 | 0.18 | 5.92 | 5.92 | 99 | 1016.4 |
| 20260501220003 | 13 | 63 | 3.2 | 4.8 | 0.00 | 5.89 | 5.89 | 99 | 1016.6 |
| 20260501215459 | 13 | 126 | 3.2 | 4.8 | 0.00 | 5.89 | 5.89 | 99 | 1017.0 |
| 20260501214955 | 13 | 355 | 6.4 | 9.7 | 0.00 | 5.89 | 5.89 | 99 | 1017.1 |
| 20260501214450 | 13 | 41 | 3.2 | 4.8 | 0.13 | 5.89 | 5.89 | 99 | 1016.7 |
| 20260501213946 | 14 | 97 | 3.2 | 3.2 | 0.13 | 5.89 | 5.89 | 99 | 1016.2 |
| 20260501213444 | 14 | 127 | 3.2 | 3.2 | 0.00 | 5.87 | 5.87 | 99 | 1016.1 |
| 20260501212938 | 14 | 324 | 4.8 | 8.0 | 0.00 | 5.87 | 5.87 | 99 | 1015.3 |
| 20260501212436 | 13 | 305 | 4.8 | 4.8 | 0.18 | 5.87 | 5.87 | 99 | 1015.3 |
| 20260501211932 | 14 | 93 | 3.2 | 4.8 | 0.30 | 5.87 | 5.87 | 99 | 1015.3 |
| 20260501211430 | 14 | 50 | 3.2 | 4.8 | 0.30 | 5.84 | 5.84 | 99 | 1015.8 |
| 20260501210927 | 14 | 146 | 1.6 | 3.2 | 0.30 | 5.82 | 5.82 | 99 | 1016.0 |
| 20260501210424 | 14 | 52 | 1.6 | 3.2 | 0.13 | 5.79 | 5.79 | 99 | 1015.6 |
| 20260501205921 | 14 | 113 | 3.2 | 4.8 | 0.30 | 5.77 | 5.77 | 99 | 1015.6 |
| 20260501205417 | 14 | 28 | 3.2 | 3.2 | 0.48 | 5.77 | 5.77 | 99 | 1015.8 |
| 20260501204915 | 14 | 54 | 3.2 | 3.2 | 0.30 | 5.71 | 5.71 | 99 | 1015.7 |
| 20260501204410 | 13 | 163 | 3.2 | 3.2 | 0.48 | 5.69 | 5.69 | 99 | 1016.0 |
| 20260501203907 | 14 | 311 | 6.4 | 9.7 | 0.66 | 5.66 | 5.66 | 99 | 1015.6 |
| 20260501203404 | 14 | 55 | 3.2 | 3.2 | 0.61 | 5.61 | 5.61 | 99 | 1016.0 |
| 20260501202902 | 14 | 48 | 1.6 | 1.6 | 0.71 | 5.56 | 5.56 | 99 | 1015.9 |
| 20260501202358 | 14 | 1 | 4.8 | 8.0 | 0.61 | 5.49 | 5.49 | 99 | 1016.1 |
| 20260501201855 | 14 | 235 | 4.8 | 8.0 | 0.30 | 5.44 | 5.44 | 99 | 1016.0 |
| 20260501201352 | 14 | 171 | 0.0 | 0.0 | 0.18 | 5.38 | 5.38 | 99 | 1016.0 |
| 20260501200848 | 14 | 35 | 3.2 | 4.8 | 0.18 | 5.38 | 5.38 | 99 | 1015.4 |
| 20260501200345 | 14 | 91 | 4.8 | 8.0 | 0.00 | 5.36 | 5.36 | 99 | 1015.2 |
| 20260501195843 | 14 | 32 | 4.8 | 8.0 | 0.00 | 5.36 | 5.36 | 99 | 1015.5 |
| 20260501195338 | 14 | 139 | 1.6 | 1.6 | 0.00 | 5.36 | 5.36 | 99 | 1015.7 |
| 20260501194829 | 14 | 145 | 0.0 | 1.6 | 0.00 | 5.36 | 5.36 | 99 | 1015.6 |
| 20260501194326 | 14 | 45 | 1.6 | 3.2 | 0.00 | 5.36 | 5.36 | 99 | 1015.1 |
| 20260501193822 | 14 | 74 | 3.2 | 4.8 | 0.00 | 5.36 | 5.36 | 99 | 1014.4 |
| 20260501193321 | 14 | 65 | 1.6 | 4.8 | 0.00 | 5.36 | 5.36 | 99 | 1014.8 |
| 20260501192818 | 14 | 121 | 3.2 | 4.8 | 0.00 | 5.36 | 5.36 | 99 | 1015.3 |
| 20260501192315 | 14 | 100 | 1.6 | 1.6 | 0.00 | 5.36 | 5.36 | 99 | 1015.1 |
| 20260501191811 | 14 | 79 | 1.6 | 3.2 | 0.00 | 5.36 | 5.36 | 99 | 1014.7 |
| 20260501191309 | 14 | 60 | 3.2 | 4.8 | 0.00 | 5.36 | 5.36 | 99 | 1014.2 |
| 20260501190805 | 14 | 79 | 4.8 | 4.8 | 0.00 | 5.36 | 5.36 | 99 | 1014.0 |
| 20260501190302 | 14 | 85 | 8.0 | 16.1 | 0.00 | 5.36 | 5.36 | 99 | 1013.7 |
| 20260501185757 | 14 | 45 | 8.0 | 9.7 | 0.00 | 5.36 | 5.36 | 99 | 1013.9 |
| 20260501185253 | 14 | 40 | 9.7 | 12.9 | 0.00 | 5.36 | 5.36 | 99 | 1013.9 |
| 20260501184749 | 14 | 45 | 8.0 | 9.7 | 0.00 | 5.36 | 5.36 | 99 | 1013.9 |
| 20260501184244 | 14 | 97 | 17.7 | 22.5 | 0.00 | 5.36 | 5.36 | 99 | 1013.6 |
| 20260501183740 | 14 | 17 | 8.0 | 14.5 | 0.00 | 5.36 | 5.36 | 99 | 1013.5 |
| 20260501183238 | 14 | 93 | 16.1 | 22.5 | 0.00 | 5.36 | 5.36 | 99 | 1013.4 |
| 20260501182734 | 15 | 93 | 8.0 | 12.9 | 0.00 | 5.36 | 5.36 | 99 | 1014.2 |
| 20260501182231 | 15 | 110 | 4.8 | 8.0 | 0.00 | 5.36 | 5.36 | 99 | 1013.9 |
| 20260501181728 | 15 | 50 | 8.0 | 11.3 | 0.00 | 5.36 | 5.36 | 99 | 1014.3 |
| 20260501181226 | 15 | 97 | 6.4 | 8.0 | 0.00 | 5.36 | 5.36 | 99 | 1014.5 |
| 20260501180723 | 15 | 39 | 4.8 | 4.8 | 0.00 | 5.36 | 5.36 | 99 | 1015.1 |
| 20260501180219 | 15 | 49 | 3.2 | 3.2 | 0.13 | 5.36 | 5.36 | 99 | 1015.4 |
| 20260501175716 | 15 | 66 | 4.8 | 4.8 | 0.13 | 5.36 | 5.36 | 99 | 1015.9 |
| 20260501175213 | 15 | 52 | 3.2 | 4.8 | 0.00 | 5.33 | 5.33 | 99 | 1016.1 |
| 20260501174709 | 15 | 5 | 9.7 | 11.3 | 0.00 | 5.33 | 5.33 | 99 | 1016.1 |
| 20260501174207 | 15 | 21 | 4.8 | 4.8 | 0.00 | 5.33 | 5.33 | 99 | 1016.0 |
| 20260501173704 | 15 | 63 | 4.8 | 8.0 | 0.00 | 5.33 | 5.33 | 99 | 1015.8 |
| 20260501173201 | 15 | 126 | 3.2 | 8.0 | 0.00 | 5.33 | 5.33 | 99 | 1015.7 |
| 20260501172657 | 15 | 50 | 6.4 | 11.3 | 0.00 | 5.33 | 5.33 | 99 | 1015.6 |
| 20260501172152 | 15 | 185 | 8.0 | 16.1 | 0.00 | 5.33 | 5.33 | 99 | 1015.8 |
| 20260501171648 | 15 | 40 | 4.8 | 4.8 | 0.00 | 5.33 | 5.33 | 99 | 1016.1 |
| 20260501171145 | 15 | 71 | 4.8 | 8.0 | 0.00 | 5.33 | 5.33 | 99 | 1016.5 |
| 20260501170642 | 15 | 21 | 3.2 | 4.8 | 0.18 | 5.33 | 5.33 | 99 | 1016.7 |
| 20260501170139 | 15 | 34 | 4.8 | 4.8 | 0.18 | 5.33 | 5.33 | 99 | 1017.3 |
| 20260501165637 | 15 | 90 | 1.6 | 1.6 | 0.18 | 5.31 | 5.31 | 99 | 1017.5 |
| 20260501165133 | 15 | 48 | 3.2 | 3.2 | 0.30 | 5.31 | 5.31 | 99 | 1017.5 |
| 20260501164632 | 15 | 53 | 4.8 | 4.8 | 0.30 | 5.28 | 5.28 | 99 | 1017.7 |
| 20260501164128 | 15 | 69 | 1.6 | 1.6 | 0.30 | 5.26 | 5.26 | 99 | 1018.0 |
| 20260501163625 | 15 | 113 | 3.2 | 4.8 | 0.43 | 5.23 | 5.23 | 99 | 1018.1 |
| 20260501163122 | 15 | 106 | 3.2 | 3.2 | 0.48 | 5.21 | 5.21 | 99 | 1017.9 |
| 20260501162618 | 15 | 114 | 1.6 | 3.2 | 0.48 | 5.16 | 5.16 | 99 | 1018.1 |